This demonstration page uses our WeatherBlox Daily Observations layout. Learn more.

Hourly Observations for February 19, 2017

Temp ( °F °C ) Dew Point ( °F °C ) Humidity (%) Winds ( mph kmh ) Pressure ( in mb ) Visibility ( mi km ) Precip ( " mm )
12:15 am 00:15 Clear 47 8.6 37 2.6 66 66 S 10 17 29.8 1009 10 16.0934 0 0
12:35 am 00:35 Clear 48 8.7 37 2.6 66 66 S 12 19 29.8 1009 10 16.0934 0 0
12:55 am 00:55 Clear 46 8 37 2.5 69 69 S 9 15 29.8 1009 10 16.0934 0 0
1:15 am 01:15 Clear 45 7.2 37 2.6 73 73 S 10 17 29.8 1009 10 16.0934 0 0
1:35 am 01:35 Clear 44 6.9 37 2.7 75 75 S 10 17 29.83 1010 10 16.0934 0 0
1:55 am 01:55 Clear 46 7.5 38 3.2 74 74 S 12 19 29.8 1009 10 16.0934 0 0
2:15 am 02:15 Clear 46 7.7 38 3.5 75 75 S 13 20 29.8 1009 10 16.0934 0 0
2:35 am 02:35 Clear 45 7.1 38 3.3 77 77 S 10 17 29.83 1010 10 16.0934 0 0
2:55 am 02:55 Clear 45 7.2 39 3.7 79 79 S 13 20 29.8 1009 10 16.0934 0 0
3:15 am 03:15 Clear 45 7.2 39 4 80 80 S 13 20 29.8 1009 10 16.0934 0 0
3:35 am 03:35 Clear 44 6.5 39 4 84 84 S 9 15 29.83 1010 10 16.0934 0 0
3:55 am 03:55 Clear 43 6 39 3.7 85 85 S 6 9 29.83 1010 10 16.0934 0 0
4:15 am 04:15 Clear 43 6 39 4 87 87 S 6 9 29.83 1010 10 16.0934 0 0
4:35 am 04:35 Clear 42 5.6 39 3.7 88 88 SSE 8 13 29.83 1010 10 16.0934 0 0
4:55 am 04:55 Clear 41 5.1 39 3.7 91 91 SSE 9 15 29.83 1010 10 16.0934 0 0
5:15 am 05:15 Clear 42 5.5 40 4.4 93 93 S 10 17 29.83 1010 10 16.0934 0 0
5:35 am 05:35 Clear 41 5 39 3.9 93 93 S 8 13 29.83 1010 7 11.26538 0 0
5:55 am 05:55 Clear 40 4.5 38 3.4 93 93 SSE 8 13 29.83 1010 7 11.26538 0 0
6:15 am 06:15 Clear with Mist and Fog 39 3.9 37 3 94 94 SE 9 15 29.83 1010 4 6.43736 0 0
6:35 am 06:35 Clear with Mist and Fog 40 4.6 39 3.9 95 95 SE 13 20 29.83 1010 3 4.82802 0 0
6:55 am 06:55 Clear with Mist and Fog 42 5.4 40 4.7 95 95 S 9 15 29.83 1010 3 4.82802 0 0
7:15 am 07:15 Clear with Mist and Fog 42 5.4 41 4.8 96 96 SSE 8 13 29.83 1010 3 4.82802 0 0
7:35 am 07:35 Sunny with Mist and Fog 43 6 42 5.5 97 97 S 10 17 29.83 1010 4 6.43736 0 0
7:55 am 07:55 Sunny with Mist and Fog 44 6.5 43 6 97 97 S 14 22 29.83 1010 2 3.21868 0 0
8:15 am 08:15 Sunny with Mist and Fog 44 6.9 43 6.3 96 96 SSE 10 17 29.83 1010 2.5 4.02335 0 0
8:35 am 08:35 Sunny with Mist and Fog 46 7.7 45 7.1 96 96 SSE 15 24 29.8 1009 3 4.82802 0 0
8:55 am 08:55 Sunny with Mist and Fog 47 8.4 46 7.5 94 94 S 13 20 29.8 1009 4 6.43736 0 0
9:15 am 09:15 Partly Cloudy with Mist and Fog 48 8.8 46 7.8 94 94 S 14 22 29.8 1009 4 6.43736 0 0
9:35 am 09:35 Mostly Cloudy with Mist and Fog 49 9.3 47 8.2 93 93 S 12 19 29.8 1009 5 8.0467 0 0
9:55 am 09:55 Cloudy with Mist and Fog 50 10 48 8.7 92 92 S 14 22 29.8 1009 5 8.0467 0 0
10:15 am 10:15 Cloudy 51 10.8 48 9 89 89 S 15 24 29.77 1008 7 11.26538 0 0
10:35 am 10:35 Partly Cloudy 53 11.6 48 9.1 85 85 S 18 30 29.77 1008 10 16.0934 0 0
10:55 am 10:55 Sunny 55 12.8 48 9.1 78 78 S 16 26 29.77 1008 10 16.0934 0 0
11:15 am 11:15 Sunny 56 13.3 48 8.9 75 75 S 14 22 29.77 1008 10 16.0934 0 0
11:35 am 11:35 Sunny 58 14.3 48 8.7 69 69 S 22 35 29.74 1007 10 16.0934 0 0
11:55 am 11:55 Sunny 60 15.8 46 8 60 60 S 20 31 29.74 1007 10 16.0934 0 0
12:15 pm 12:15 Sunny 62 16.8 46 7.7 55 55 S 22 35 29.74 1007 10 16.0934 0 0
12:35 pm 12:35 Sunny 64 17.5 46 7.5 52 52 S 21 33 29.71 1006 10 16.0934 0 0
12:55 pm 12:55 Sunny 65 18.5 43 6.1 44 44 S 20 31 29.68 1005 10 16.0934 0 0
1:15 pm 13:15 Sunny 67 19.6 43 6 41 41 S 16 26 29.68 1005 10 16.0934 0 0
1:35 pm 13:35 Sunny 68 19.8 43 6 41 41 S 18 30 29.68 1005 10 16.0934 0 0
1:55 pm 13:55 Sunny 69 20.5 43 6 39 39 S 18 30 29.62 1003 10 16.0934 0 0
2:15 pm 14:15 Sunny 69 20.5 41 5.2 37 37 S 21 33 29.62 1003 10 16.0934 0 0
2:35 pm 14:35 Sunny 69 20.5 41 5 36 36 S 22 35 29.62 1003 10 16.0934 0 0
2:55 pm 14:55 Sunny 69 20.8 41 5.1 36 36 S 24 39 29.62 1003 10 16.0934 0 0
3:15 pm 15:15 Sunny 69 20.6 42 5.5 37 37 S 24 39 29.62 1003 10 16.0934 0 0
3:35 pm 15:35 Sunny 70 21 43 6 38 38 S 23 37 29.62 1003 10 16.0934 0 0
3:55 pm 15:55 Sunny 70 20.9 43 6.1 38 38 SSE 20 31 29.59 1002 10 16.0934 0 0
4:15 pm 16:15 Sunny 70 20.9 43 6 38 38 S 22 35 29.59 1002 10 16.0934 0 0
4:35 pm 16:35 Sunny 70 21 41 5.2 36 36 S 22 35 29.59 1002 10 16.0934 0 0
4:55 pm 16:55 Sunny 69 20.8 41 5.1 36 36 S 24 39 29.59 1002 10 16.0934 0 0
5:15 pm 17:15 Sunny 69 20.5 42 5.8 38 38 SSE 17 28 29.59 1002 10 16.0934 0 0
5:35 pm 17:35 Sunny 67 19.5 44 6.6 43 43 SSE 15 24 29.65 1004 10 16.0934 0 0
5:55 pm 17:55 Sunny 65 18.5 44 6.8 47 47 SSE 20 31 29.65 1004 10 16.0934 0 0
6:15 pm 18:15 Sunny 63 17.1 46 7.5 53 53 SSE 18 30 29.65 1004 10 16.0934 0 0
6:35 pm 18:35 Clear 61 16.1 46 7.6 57 57 SSE 21 33 29.68 1005 10 16.0934 0 0
6:55 pm 18:55 Clear 59 15.2 46 7.8 62 62 SSE 18 30 29.68 1005 10 16.0934 0 0
7:15 pm 19:15 Clear 58 14.5 46 8 65 65 SSE 18 30 29.68 1005 10 16.0934 0 0
7:35 pm 19:35 Clear 58 14.3 47 8.2 67 67 SSE 18 30 29.68 1005 10 16.0934 0 0
7:55 pm 19:55 Clear 57 13.9 47 8.5 70 70 SSE 20 31 29.68 1005 10 16.0934 0 0
8:15 pm 20:15 Clear 56 13.5 48 8.8 73 73 SSE 16 26 29.68 1005 10 16.0934 0 0
8:35 pm 20:35 Clear 57 13.7 49 9.5 76 76 SSE 22 35 29.71 1006 10 16.0934 0 0
8:55 pm 20:55 Clear 56 13.5 49 9.5 77 77 SSE 20 31 29.74 1007 10 16.0934 0 0
9:15 pm 21:15 Partly Cloudy 55 13 50 10 82 82 S 17 28 29.74 1007 10 16.0934 0 0
9:35 pm 21:35 Mostly Cloudy 55 12.7 50 10.1 84 84 S 17 28 29.74 1007 10 16.0934 0 0
9:55 pm 21:55 Partly Cloudy 54 12.3 50 10.1 87 87 SSE 17 28 29.74 1007 7 11.26538 0 0
10:15 pm 22:15 Mostly Cloudy 54 12.3 51 10.5 89 89 SSE 15 24 29.74 1007 7 11.26538 0 0
10:35 pm 22:35 Cloudy 55 12.6 51 10.7 88 88 SSE 16 26 29.74 1007 7 11.26538 0 0
10:55 pm 22:55 Cloudy 55 12.5 51 10.7 89 89 SSE 17 28 29.71 1006 7 11.26538 0 0
11:15 pm 23:15 Cloudy with Mist and Fog 55 12.6 52 11 90 90 SSE 16 26 29.71 1006 5 8.0467 0 0
11:35 pm 23:35 Cloudy with Mist and Fog 55 12.6 52 11 90 90 SSE 16 26 29.68 1005 5 8.0467 0 0
11:55 pm 23:55 Cloudy with Mist and Fog 55 12.8 52 11.3 91 91 SSE 20 31 29.68 1005 5 8.0467 0 0

Powered by AerisWeather